Regional Weather Roundup
Issued by NWS

Home | Current Version | Previous Version | Text Only | Print | Product List | Glossary On
Versions: 1 2 3 4 5 6 7 8 9 10 11 12 13 14 15 16 17 18 19 20 21 22 23 24 25 26 27 28 29 30 31 32 33 34 35 36 37 38 39 40 41 42 43 44 45 46 47 48 49 50
943
ASUS46 KLOX 091013
RWRCA

SOUTHERN CALIFORNIA WEATHER ROUNDUP
NATIONAL WEATHER SERVICE OXNARD CALIFORNIA
200 AM PST TUE FEB 09 2016

NOTE: "FAIR" INDICATES FEW OR NO CLOUDS BELOW 12,000 FEET WITH NO
SIGNIFICANT WEATHER AND/OR OBSTRUCTIONS TO VISIBILITY.

  -  STATIONS PRECEEDED BY AN ASTERISK (*) ARE NOT NWS OR FAA
     STATIONS AND ARE NOT SUBJECT TO NWS AND FAA QUALITY CONTROL.

CAZ041-042-087-091100-
LA AND ORANGE COUNTY COASTAL AREAS


CITY           SKY/WX    TMP DP  RH WIND       PRES   REMARKS
L.A. DOWNTOWN  CLEAR     59  31  34 CALM      30.11F
L.A. AIRPORT   CLEAR     63  29  27 NE3       30.12S
LONG BEACH     CLEAR     60  34  37 W5        30.11F

CITY           SKY/WX    TMP DP  RH WIND       PRES   REMARKS
FULLERTON      CLEAR     58  31  35 E3        30.10F
HAWTHORNE      CLEAR     61  30  31 CALM      30.12S
*LEO CARRILLO    N/A     73  19  13 NW5G21      N/A
*LOS ALAMITOS  FAIR      62  32  33 NW5       30.10F
*REDONDO BEACH   N/A     56  32  39 CALM      30.12S
SANTA ANA      CLEAR     59  33  37 SW3       30.10F
STA MONICA APT CLEAR     62  30  29 NE3       30.12S
*STA MON PIER    N/A     70  27  20 W1        30.05S
*UCLA            N/A     68  21  17 N8        30.09F

$$

CAZ547-548-048-091100-
LA COUNTY VALLEYS AND INLAND EMPIRE


CITY           SKY/WX    TMP DP  RH WIND       PRES   REMARKS
BURBANK        CLEAR     57  27  31 CALM      30.13F
VAN NUYS       CLEAR     58  27  30 CALM      30.14F

CITY           SKY/WX    TMP DP  RH WIND       PRES   REMARKS
CORONA AIRPORT SUNNY     69  25  19 E9        30.15F
*CHATSWORTH      N/A     75  28  17 N2        30.12F
CHINO          CLEAR     56  32  40 CALM      30.16S
*CLAREMONT       N/A     57  25  29 N5          N/A
MARCH AFB      CLEAR     50  24  35 NW3       30.18S
ONTARIO        CLEAR     56  27  32 N5        30.15S
*PASADENA        N/A     59  32  36 E1          N/A
RIVERSIDE      CLEAR     57  28  33 E7        30.16F
SAN BERNARDINO NOT AVBL
*SAN GABRIEL     N/A     56  35  43 NW2       30.20S
*SAN RAFAEL HI   N/A     70  13  11 NW2         N/A
*SAUGUS          N/A     70  20  15 N7G29       N/A
*WHITEMAN AP   NOT AVBL
*WOODLAND HILL   N/A     57  27  30 SE2         N/A

$$

CAZ054-055-091100-
LA AND SAN BERNARDINO COUNTY MOUNTAINS


CITY           SKY/WX    TMP DP  RH WIND       PRES   REMARKS
*BIG BEAR AIRP SUNNY     25  18  74 CALM      30.45S
*BIG PINES       N/A     43  15  31 CALM        N/A
SANDBERG       CLEAR     57  20  23 E28G43    30.33F
*WARM SPRINGS    N/A     57  42  57 NE26G38     N/A

$$

CAZ028-029-059-060-099-091100-
ANTELOPE VALLEY AND SURROUNDING AREAS


CITY           SKY/WX    TMP DP  RH WIND       PRES   REMARKS
LANCASTER      CLEAR     36  26  67 W5        30.32F WCI  32
PALMDALE       CLEAR     47  23  38 CALM      30.33S
*POPPY PARK      N/A     43  23  45 W3          N/A

CITY           SKY/WX    TMP DP  RH WIND       PRES   REMARKS
29 PALMS       CLEAR     50  22  33 NW7       30.36F
BARSTOW/DAGGET CLEAR     45  24  43 CALM      30.32R
BISHOP         PTCLDY    37  25  61 NW9       30.44F WCI  30
CHINA LAKE     CLEAR     44  26  49 CALM      30.33S
EDWARDS AFB    CLEAR     41  24  50 NW3       30.31S
MOJAVE         CLEAR     45  27  49 NW8       30.33F
NEEDLES        CLEAR     64  27  24 N16G24    30.25R
VICTORVILLE    CLEAR     39  21  48 CALM      30.33S

$$

CAZ039-040-091100-
VENTURA AND SANTA BARBARA COUNTY COAST


CITY           SKY/WX    TMP DP  RH WIND       PRES   REMARKS
CAMARILLO      CLEAR     74  24  15 E16       30.11S
NWS OXNARD       N/A     70  26  19 E3        30.10S
OXNARD AIRPORT CLEAR     57  40  52 CALM      30.12R
*POINT MUGU    CLEAR     73  28  18 NE9       30.11F
SBA APT/GOLETA CLEAR     50  38  63 CALM      30.12S
*SANTA BARBARA   N/A     56  33  42 CALM      30.19F
*VENTURA         N/A     71  27  19 NE3       30.10S

$$

CAZ044-045-091100-
VENTURA COUNTY VALLEYS


CITY           SKY/WX    TMP DP  RH WIND       PRES   REMARKS
*SIMI VALLEY     N/A     73  28  19 N10       30.07S
*WESTLAKE VILL   N/A     48  34  57 E1        30.12S
*OJAI            N/A     42  35  76 CALM      30.10S
*FILLMORE        N/A     74  34  23 CALM      30.03S

$$

CAZ053-091100-
VENTURA COUNTY MOUNTAINS


CITY           SKY/WX    TMP DP  RH WIND       PRES   REMARKS
*LOCKWOOD VLY    N/A     48  18  29 NE1         N/A
*ROSE VALLEY     N/A     34  27  75 MISG        N/A

$$

CAZ034-035-036-091100-
CENTRAL COAST AND SANTA YNEZ VALLEY


CITY           SKY/WX    TMP DP  RH WIND       PRES   REMARKS
SAN LUIS OBISP CLEAR     51  42  71 E3        30.14F
SANTA MARIA    CLEAR     50  40  68 SE5       30.14F

CITY           SKY/WX    TMP DP  RH WIND       PRES   REMARKS
*CAL POLY SLO    N/A     50  45  81 CALM        N/A
*SANTA YNEZ    FAIR      46  36  66 E5        30.17S

$$

CAZ037-038-051-091100-
SAN LUIS OBISPO COUNTY INTERIOR AND CUYAMA VALLEY


CITY           SKY/WX    TMP DP  RH WIND       PRES   REMARKS
*CUYAMA          N/A     46  30  54 E1        30.19S
PASO ROBLES    CLEAR     42  38  85 CALM      30.21S

$$

CAZ032-033-061-091100-
SOUTHERN DESERTS


CITY           SKY/WX    TMP DP  RH WIND       PRES   REMARKS
BLYTHE         CLEAR     59  27  29 N8        30.19S
IMPERIAL       CLEAR     53  26  35 W9        30.13F
PALM SPRINGS   CLEAR     68  24  19 W6        30.19F
THERMAL        CLEAR     53  26  35 W3        30.14S

$$

ELSEWHERE ACROSS THE WESTERN UNITED STATES AND MEXICO


CITY           SKY/WX    TMP DP  RH WIND       PRES   REMARKS
DEATH VALLEY,    N/A     60  28  29 CALM        N/A
DENVER, CO     CLOUDY    28  19  69 S7        30.28S WCI  21
GRAND CANYON,  PTCLDY    23  18  81 CALM      30.47F
HONOLULU, HI   PTCLDY    66  56  70 NW6       30.03F
KAHULUI, MAUI  CLEAR     57  53  86 S3        30.03S
LAKE TAHOE, CA PTCLDY    24  20  84 CALM      30.48S
LAS VEGAS, NV  CLEAR     50  27  40 S5        30.34R
MAMMOTH LAKES, FAIR      25  19  80 N3        30.54S
MEXICO CITY, M MOCLDY    45  30  57 E3        30.41F
PHOENIX, AZ    CLEAR     63  24  22 NE10      30.16S
PORTLAND, OR   CLEAR     48  37  65 E10       30.22F
RENO, NV       CLEAR     33  27  78 W3        30.50S
SALT LAKE CITY PTCLDY    26  22  84 SE7       30.61F WCI  18
SAN DIEGO, CA  CLEAR     59  32  36 CALM      30.11S
SAN FRANCISCO, CLEAR     54  46  74 CALM      30.18S
SAN JOSE, CA   CLEAR     53  43  68 SE3       30.18S
SEATTLE, WA    CLEAR     45  41  86 N10       30.23F
TIJUANA, MEX   CLEAR     68  14  12 CALM      30.12S

$$

STATION/POSITION TIME  TEMP    WIND        PRES    VSBY  WAVE
                       AIR SEA DIR/SP/G                  HT/PER
                 (UTC) (F)     (DEG/KT/KT) (MB)    (MI)  (FT/S)
POINT ARGUELLO B NOT AVBL
WEST SANTA BARBA 0950   66 57  280/  6/  6 1019.5R         6/16
POINT CONCEPTION NOT AVBL
EAST SANTA BARBA 1000   60 57  250/  2/  4 1020.4R
SANTA MONICA BAY 0950   66 59   80/  8/  8 1019.7S         2/17



USA.gov is the U.S. government's official web portal to all federal, state and local government web resources and services.